📊 Raw Sensor Data
Showing records 42201 to 42225 of 84,996 total
| ID | Distance (ft) | Battery V | Battery A | Int Temp (°F) | Int Humid (%) | Ext Temp (°F) | Solar V | RSSI | SNR | Time Stamp |
|---|---|---|---|---|---|---|---|---|---|---|
| 42808 | 15.5 | 4.09 | 0 | 66 | 43 | 69 | 5.10 | -69 | 8 | 06/07/2025 08:15 AM |
| 42807 | 15.5 | 4.01 | 0 | 65 | 43 | 69 | 5.10 | -69 | 8 | 06/07/2025 08:00 AM |
| 42806 | 15.5 | 4.08 | 0 | 64 | 42 | 65 | 5.10 | -69 | 7 | 06/07/2025 07:45 AM |
| 42805 | 15.4 | 4.09 | 54 | 62 | 42 | 68 | 4.50 | -69 | 8 | 06/07/2025 07:30 AM |
| 42804 | 15.4 | 4.03 | 15 | 60 | 42 | 66 | 4.50 | -69 | 8 | 06/07/2025 07:15 AM |
| 42803 | 15.4 | 4.00 | 12 | 59 | 42 | 65 | 4.50 | -71 | 8 | 06/07/2025 07:00 AM |
| 42802 | 15.3 | 4.03 | 10 | 57 | 42 | 63 | 4.50 | -69 | 8 | 06/07/2025 06:45 AM |
| 42801 | 15.3 | 4.02 | 5 | 56 | 42 | 61 | 4.50 | -70 | 8 | 06/07/2025 06:30 AM |
| 42800 | 15.2 | 3.95 | 0 | 54 | 42 | 58 | 4.50 | -70 | 8 | 06/07/2025 06:15 AM |
| 42799 | 15.2 | 4.00 | -7 | 53 | 42 | 55 | 4.50 | -69 | 8 | 06/07/2025 06:00 AM |
| 42798 | 15.2 | 3.93 | -10 | 53 | 43 | 54 | 1.80 | -69 | 8 | 06/07/2025 05:45 AM |
| 42797 | 15.2 | 3.94 | -5 | 52 | 43 | 54 | 0.90 | -70 | 8 | 06/07/2025 05:30 AM |
| 42796 | 15.2 | 4.00 | -5 | 53 | 43 | 54 | 0.00 | -71 | 7 | 06/07/2025 05:15 AM |
| 42795 | 15.0 | 3.95 | -5 | 52 | 43 | 54 | 0.00 | -72 | 8 | 06/07/2025 05:00 AM |
| 42794 | 15.0 | 3.94 | -5 | 52 | 43 | 54 | 0.10 | -72 | 8 | 06/07/2025 04:45 AM |
| 42793 | 15.0 | 4.01 | -5 | 52 | 43 | 54 | 0.10 | -71 | 8 | 06/07/2025 04:30 AM |
| 42792 | 15.1 | 3.95 | -5 | 52 | 43 | 54 | 0.00 | -70 | 8 | 06/07/2025 04:15 AM |
| 42791 | 15.0 | 3.94 | -5 | 52 | 43 | 54 | 0.00 | -71 | 8 | 06/07/2025 04:00 AM |
| 42790 | 15.0 | 3.95 | -5 | 52 | 43 | 54 | 0.00 | -70 | 8 | 06/07/2025 03:45 AM |
| 42789 | 15.0 | 3.95 | -5 | 52 | 43 | 53 | 0.00 | -73 | 8 | 06/07/2025 03:30 AM |
| 42788 | 15.0 | 4.01 | -5 | 52 | 43 | 53 | 0.00 | -72 | 8 | 06/07/2025 03:15 AM |
| 42787 | 15.1 | 3.95 | -5 | 52 | 43 | 53 | 0.00 | -72 | 8 | 06/07/2025 03:00 AM |
| 42786 | 15.1 | 3.95 | -5 | 52 | 43 | 53 | 0.00 | -72 | 8 | 06/07/2025 02:45 AM |
| 42785 | 15.0 | 3.95 | -5 | 53 | 44 | 54 | 0.00 | -72 | 8 | 06/07/2025 02:30 AM |
| 42784 | 15.0 | 3.95 | -5 | 53 | 44 | 54 | 0.00 | -72 | 8 | 06/07/2025 02:15 AM |